Terug naar catalogus

SL-14 DEB

ActiefPO
NORAD 25187·DEBRIS·🇷🇺 Russia

Gelanceerd Aug 18, 1987 vanaf Plesetsk Cosmodrome

Loading…

Volgende Passages (komende 24 uur)

TLE

VersSource: Space-Track

Epoch: Sep 14, 2026, 21:43 UTC

1 25187U 87068N   26257.90528802  .00016063  00000-0  24749-2 0  9992
2 25187  82.5307 160.2985 0002346  68.4552 291.6907 14.73346319474006

Volg SL-14 DEB in realtime met AllMySat

Download on the App Store